Луангпхабанг

Лаос     19°53′13″N   102°08′07″E
темп.,
°C
ветер,
м/с
пор.,
м/с
влажн.,
%
обл.,
%
осадки,
мм/ч
давл.,
гПа
погр.,
м
16 апреля, пт
пт1601:00+23ююз116599 0.0 100812
04:00+21ююз007393 0.0 100811
07:00+23ю016815 0.0 1010101
10:00+33зюз123781 0.0 10111067
13:00+38з1322100 0.0 10073514
16:00+25ю2463100 0.5 1007331
19:00+23ююв117145 0.6 100821
22:00+23ююз2573100 0.0 1011272
17 апреля, сб
сб1701:00+22ююв1285100 0.2 1012151
04:00+22в0087100 0.1 101050
07:00+23ю1182100 0.6 1013169
10:00+21зюз019192 1.6 1015183
13:00+25в116553 1.6 1012924
16:00+28зсз115658 0.7 10081183
19:00+22с118886 2.9 101129
22:00+21ссз1296100 6.0 101494
18 апреля, вс
вс1801:00+20юз0199100 24.1 101375
04:00+20в0098100 3.6 101251
07:00+21зсз009578 3.8 1013124
10:00+27зюз126734 1.1 1013828
13:00+29ююз135827 2.6 10091478
16:00+27ююв136973 2.3 1007866
19:00+23ююв11905 3.0 100811
22:00+21ююв119420 0.1 101017
19 апреля, пн
пн1901:00+20ю119770 0.1 100916
04:00+20ююз019860 0.0 100916
07:00+21ю01917 0.0 1011138
10:00+29юз12550 0.0 1011989
13:00+33юз13373 0.0 10062252
16:00+28с125185 0.0 1004316
19:00+24вюв00680 0.1 100511
22:00+22ю11780 0.0 100811
20 апреля, вт
вт2001:00+21ююв01857 0.3 100812
04:00+20ю11925 0.4 100814
07:00+21ююз01884 0.8 1010107
10:00+30юз12523 0.0 1010915
13:00+35зюз13331 0.0 10062811
16:00+31юз124178 0.0 1004836
19:00+24юз13710 0.0 100791
22:00+22юз11831 0.0 100916